Regional Weather Roundup
Issued by NWS State College, PA

Home | Current Version | Previous Version | Graphics & Text | Print | Product List | Glossary Off
Versions: 1 2 3 4 5 6 7 8 9 10 11 12 13 14 15 16 17 18 19 20 21 22 23 24 25 26 27 28 29 30 31 32 33 34 35 36 37 38 39 40 41 42 43 44 45 46 47 48 49 50

000
ASUS41 KCTP 041510
RWRCTP

REGIONAL WEATHER ROUNDUP
NATIONAL WEATHER SERVICE STATE COLLEGE PA
1100 AM EDT SAT JUL 04 2015

Note: "fair" indicates few or no clouds below 12,000 feet with no
significant weather and/or obstructions to visibility.

* = STATION THAT DOES NOT REPORT PRECIPITATION /E.G. RAIN...SNOW...ETC/
    THUNDER OR FOG.

PAZ002>004-007>009-013>016-020>023-029>032-041600-
WESTERN PENNSYLVANIA

CITY           SKY/WX    TMP DP  RH WIND       PRES   REMARKS
ERIE           SUNNY     68  56  65 N6        29.97R
MEADVILLE      SUNNY     71  56  58 N6        29.97R
FRANKLIN*      MOSUNNY   72  61  68 N5        29.97S
NEW CASTLE     FAIR      73  64  73 CALM      29.97R
BEAVER COUNTY  NOT AVBL
BUTLER*        PTSUNNY   70  64  83 CALM      29.98R
PITTSBURGH INT CLOUDY    71  64  78 NW9       29.95R
PITTSBURGH     PTSUNNY   70  62  76 N3        29.94S
INDIANA*       CLOUDY    68  66  94 VRB5      29.98R
LATROBE        CLOUDY    68  68 100 W6        29.95R FOG
WASHINGTON CO* NOT AVBL
$$

PAZ004>006-010>012-017>019-024>028-033>037-041-042-045-046-049>053-041600-
CENTRAL PENNSYLVANIA

CITY           SKY/WX    TMP DP  RH WIND       PRES   REMARKS
BRADFORD       PTSUNNY   68  58  70 E7        29.97R
DUBOIS         CLOUDY    69  62  78 N3        29.95R
CLEARFIELD     CLOUDY    65  62  90 E8        29.95S
JOHNSTOWN      CLOUDY    64  62  93 NW7       29.96R
ALTOONA        CLOUDY    64  62  93 NE5       29.95R FOG
STATE COLLEGE  LGT RAIN  63  61  94 NE6       29.97R FOG
WILLIAMSPORT   LGT RAIN  63  59  87 CALM      29.96R FOG
SELINSGROVE    LGT RAIN  65  62  90 CALM      29.96R FOG
FT INDIANTOWN  LGT RAIN  65  63  95 NE5       29.96S FOG
CAPITAL CITY   RAIN      66  63  90 E7        29.94F FOG
HARRISBURG     LGT RAIN  67  63  87 NE5       29.94R FOG
YORK           LGT RAIN  68  67  96 E5        29.94R FOG
$$

PAZ038>040-043-044-047-048-054-055-060>062-067>071-041600-
EASTERN PENNSYLVANIA

CITY           SKY/WX    TMP DP  RH WIND       PRES   REMARKS
SCRANTON       RAIN      64  62  93 NE7       29.99S FOG
MOUNT POCONO   LGT RAIN  61  57  87 SE6       30.01S FOG
ALLENTOWN      LGT RAIN  66  63  88 NE8       29.97S FOG
QUAKERTOWN*    CLOUDY    66  63  88 NE8       29.97S
READING        LGT RAIN  68  64  87 NE6       29.94S
LANCASTER      CLOUDY    69  65  86 NE12      29.94S
COATESVILLE    LGT RAIN  68  68 100 NE3       29.96R
POTTSTOWN      CLOUDY    68  63  84 N7        29.96S
BLUE BELL      CLOUDY    72  64  78 NE5       29.93S
DOYLESTOWN     LGT RAIN  69  63  81 NE8       29.95S
WILLOW GROVE   NOT AVBL
NORTH PHILA    CLOUDY    75  60  59 N10       29.95R
PHILADELPHIA   CLOUDY    77  63  61 NE9G16    29.92S
$$



USA.gov is the U.S. government's official web portal to all federal, state and local government web resources and services.